Regional Weather Roundup
Issued by NWS

Home | Current Version | Previous Version | Graphics & Text | Print | Product List | Glossary On
Versions: 1 2 3 4 5 6 7 8 9 10 11 12 13 14 15 16 17 18 19 20 21 22 23 24 25 26 27 28 29 30 31 32 33 34 35 36 37 38 39 40 41 42 43 44 45 46 47 48 49 50
342
ASUS43 KOAX 231010
RWRNE

WEATHER ROUNDUP FOR NEBRASKA
NATIONAL WEATHER SERVICE OMAHA NE
500 AM CDT SUN JUL 23 2017

NOTES: SATELLITE DATA IS BEING USED TO AUGMENT CLOUD COVER ABOVE
       12000 FEET.
       "FAIR" INDICATES FEW OR NO CLOUDS BELOW 12,000 FEET WITH NO
       SIGNIFICANT WEATHER AND/OR OBSTRUCTIONS TO VISIBILITY.


NEZ001>004-019>022-054>056-231100-
NEBRASKA PANHANDLE

CITY           SKY/WX    TMP DP  RH WIND       PRES   REMARKS
SCOTTSBLUFF    CLEAR     63  52  67 CALM      30.11S
ALLIANCE       CLEAR     57  49  74 N3        30.10S
CHADRON        CLEAR     58  53  84 SW6       30.08S
GORDON         FAIR      58  52  83 CALM      30.11R
KIMBALL        CLEAR     60  56  85 W6        30.18F
SIDNEY         CLEAR     56  48  74 SW9       30.15S
$$

NEZ057>060-069>072-079>082-231100-
SOUTHWEST NEBRASKA

CITY           SKY/WX    TMP DP  RH WIND       PRES   REMARKS
NORTH PLATTE   CLEAR     55  52  89 CALM      30.05S
IMPERIAL       CLEAR     62  54  74 NW5       30.08S
LEXINGTON      CLEAR     63  61  94 NW5       30.02S FOG
MCCOOK         CLEAR     59  58  96 W5        30.04S
OGALLALA       CLEAR     58  53  84 W5        30.09R
$$

NEZ005>010-023>029-035>040-094-231100-
NORTH CENTRAL NEBRASKA

CITY           SKY/WX    TMP DP  RH WIND       PRES   REMARKS
VALENTINE      CLEAR     69  46  43 NE7       30.05R
AINSWORTH      CLEAR     62  56  81 N5        30.04R
BROKEN BOW     CLEAR     66  60  81 CALM      30.01S
O`NEILL        CLEAR     67  59  73 CALM      29.99S
ORD            CLEAR     60  58  92 CALM      29.98R FOG
THEDFORD       CLEAR     62  51  69 W6        30.07S
$$

NEZ041-046>049-061>064-073>077-083>087-231100-
SOUTH CENTRAL NEBRASKA

CITY           SKY/WX    TMP DP  RH WIND       PRES   REMARKS
GRAND ISLAND   CLEAR     64  64 100 CALM      29.97S
AURORA         CLEAR     66  66  99 NW6       29.96S
HASTINGS       CLEAR     68  64  87 CALM      29.98S
HEBRON         CLEAR     70  68  93 CALM      29.96R
HOLDREGE       CLEAR     65  64  96 NW3       30.00S FOG
KEARNEY        CLEAR     66  64  93 NW6       29.99S
YORK           CLEAR     66  66 100 NW8       29.95S
$$

NEZ011>018-030>034-042>045-231100-
NORTHEAST NEBRASKA

CITY           SKY/WX    TMP DP  RH WIND       PRES   REMARKS
NORFOLK        FOG       58  57  97 W3        29.97R VSB 1/2
ALBION         CLEAR     59  58  95 NW3       29.97S
BLAIR          CLEAR     70  69  96 N5        29.93R FOG
COLUMBUS       CLEAR     59  57  94 NW3       29.95S FOG
FREMONT        CLEAR     64  64  99 CALM      29.94R FOG
TEKAMAH        CLEAR     66  64  93 NW5       29.93R
WAYNE          PTCLDY    61  60  99 CALM      29.96R FOG
$$

NEZ050>053-065>068-078-088>093-231100-
SOUTHEAST NEBRASKA

CITY           SKY/WX    TMP DP  RH WIND       PRES   REMARKS
LINCOLN        CLEAR     67  65  93 NE3       29.92F
OMAHA EPPLEY   FOG       70  68  93 N7        29.92R VSB 1/4
BEATRICE       CLEAR     72  71  94 CALM      29.93R
FALLS CITY     CLEAR     71  68  90 CALM      29.90R
NEBRASKA CITY  FOG       72  72 100 NE3       29.93R VSB 1/2
PLATTSMOUTH    CLEAR     67  66  96 W3        29.91F FOG
$$

NEZ044-045-051>053-067-231100-
OMAHA AREA

CITY           SKY/WX    TMP DP  RH WIND       PRES   REMARKS
OMAHA EPPLEY   FOG       70  68  93 N7        29.92R VSB 1/4
BLAIR          CLEAR     70  69  96 N5        29.93R FOG
FREMONT        CLEAR     64  64  99 CALM      29.94R FOG
MILLARD        PTCLDY    72  71  97 CALM      29.92R FOG
OFFUTT AFB     CLEAR     62  61  96 CALM      29.90F
PLATTSMOUTH    CLEAR     67  66  96 W3        29.91F FOG
WAHOO          FAIR      62  61  97 N3        29.93R FOG
$$




USA.gov is the U.S. government's official web portal to all federal, state and local government web resources and services.